Tracking 30116 objects as of 10-Feb-2025
HD Live streaming from Space Station
objects crossing your sky now

STARLINK-32844

Track STARLINK-32844 now!
10-day predictions
STARLINK-32844 is classified as:


NORAD ID: 62820
Int'l Code: 2025-018Q
Perigee: 352.5 km
Apogee: 354.7 km
Inclination: 53.2 °
Period: 91.5 minutes
Semi major axis: 6724 km
RCS: Unknown
Launch date: January 24, 2025
Source: United States (US)
Launch site: AIR FORCE WESTERN TEST RANGE (AFWTR)
Your satellite tracking list
Your tracking list is empty




NASA's NSSDC Master Catalog

Two Line Element Set (TLE):
1 62820U 25018Q   25041.58335648 -.01181730  00000-0 -90201-2 0  9995
2 62820  53.1590 339.8284 0001609 111.1689  94.0194 15.74347397  3979
Source of the keplerian elements: AFSPC